Regional Weather Roundup
Issued by NWS Grand Forks, ND

Home | Current Version | Previous Version | Text Only | Print | Product List | Glossary Off
Versions: 1 2 3 4 5 6 7 8 9 10 11 12 13 14 15 16 17 18 19 20 21 22 23 24 25 26 27 28 29 30 31 32 33 34 35 36 37 38 39 40 41 42 43 44 45 46 47 48 49 50

000
ASUS43 KFGF 280710
RWRFGF
PRAIRIE TO PINES  WEATHER ROUNDUP
NATIONAL WEATHER SERVICE EASTERN NORTH DAKOTA/GRAND FORKS ND
200 AM CDT FRI APR 28 2017

 **SATELLITE DATA USED TO AUGMENT SKY COVER AT AUTOMATED STATIONS**
 *****  WEATHER ACROSS EASTERN NORTH DAKOTA  *****

CITY           SKY/WX    TMP DP  RH WIND       PRES   REMARKS
GRAND FORKS    FAIR      32  29  88 W8        29.84S WCI  25
GRAND FRKS AFB FAIR      30  26  87 NW6       29.85S WCI  24
DEVILS LAKE    FAIR      30  28  92 NW6       29.87S WCI  24
FARGO          FAIR      32  27  81 N12       29.83S WCI  23
WAHPETON ARPT  FAIR      32  28  86 NW10      29.84R WCI  24
$$

 ***** WEATHER ACROSS CENTRAL AND WESTERN NORTH DAKOTA  *****

CITY           SKY/WX    TMP DP  RH WIND       PRES   REMARKS
BISMARCK       FAIR      33  27  78 E8        29.90R
MINOT          FAIR      28  23  81 N3        29.89R
JAMESTOWN      FAIR      32  29  88 CALM      29.85R
MINOT AFB      FAIR      32  26  78 N3        29.89R
GARRISON         N/A     31  24  75 CALM      29.89R
WILLISTON      FAIR      31  19  61 CALM      29.89R
DICKINSON      FAIR      31  16  54 E6        29.83R
HETTINGER      FAIR      30  23  75 E8        29.84R WCI  22
$$

 *****  OTHER AIRPORT OBSERVATIONS IN OUR AREA  *****

CITY           SKY/WX    TMP DP  RH WIND       PRES   REMARKS
WALHALLA       NOT AVBL
GRAFTON AIRPOR CLOUDY    32  28  86 N5        29.87S
VALLEY CITY AR FAIR      27  27 100 W5        29.86R WCI  21
CANDO          NOT AVBL
CAVALIER APRT  PTSUNNY   32  25  74 N7        29.86R
GWINNER        SUNNY     34  28  80 MISG      29.87R
SHEYENNE NWR     N/A     32  25  76 N3        29.95S
ROLLA          FAIR      28  19  69 N9        29.89R WCI  20
 ***** THE ABOVE OBSERVATIONS ARE NON NWS ARE NOT QUALITY
       CONTROLLED AND MAY MIS-REPORT RAIN FOR SNOW...
$$

  *****  WEATHER ACROSS NORTHERN MINNESOTA  *****

CITY           SKY/WX    TMP DP  RH WIND       PRES   REMARKS
FLAG ISLAND    FLURRIES  30  27  86 NW20      29.75R WCI  18
WARROAD        FAIR      28  25  86 NW9       29.78R WCI  20
ROSEAU         MOCLDY    30  25  80 N9        29.79S WCI  22
HALLOCK        CLOUDY    36  28  75 N9        29.84S
THF RVR FALLS  CLOUDY    30  26  85 NW9       29.81S WCI  22
BAUDETTE       MOCLDY    29  22  75 N15G24    29.72R WCI  18
WASKISH        FLURRIES  28  27  93 NW9       29.73S WCI  20
CROOKSTON      FAIR      32  28  86 NW10      29.84S WCI  24
STEPHEN NDAWN    N/A     34  30  86 NW9         N/A
GREENBUSH NDAW   N/A     30  27  86 N12         N/A  WCI  21
$$
  *****  WEATHER ACROSS CENTRAL AND WEST MINNESOTA  *****

CITY           SKY/WX    TMP DP  RH WIND       PRES   REMARKS
FOSSTON        CLOUDY    27  25  93 NW9       29.79S WCI  17
BEMIDJI        FLURRIES  28  23  82 W10       29.75R WCI  18
PARK RAPIDS    FAIR      28  19  69 NW10      29.76R WCI  19
ELBOW LAKE     FAIR      35  30  82 NW10      29.81S
WADENA         CLOUDY    30  27  86 NW8       29.78R WCI  23
DETROIT LAKES  MOCLDY    32  28  86 NW7       29.80R
MOORHEAD       FAIR      30  27  86 NW12      29.84R WCI  21
FERGUS FALLS   FAIR      34  28  80 NW9       29.82R
MORRIS MN      FAIR      34  30  86 NW9       29.80S
STAPLES        CLOUDY    28  25  86 NW12      29.77R WCI  18
$$
  *****  WEATHER ELSEWHERE ACROSS MINNESOTA  *****

CITY           SKY/WX    TMP DP  RH WIND       PRES   REMARKS
DULUTH         CLOUDY    28  23  81 W13       29.67R WCI  17
INTRNTL FALLS  CLOUDY    27  22  81 NW8       29.67S WCI  19
ELY            CLOUDY    25  19  80 W5        29.63S WCI  19
CLOQUET        CLOUDY    28  23  80 W10       29.69S WCI  19
WHEATON        FAIR      34  28  80 NW8       29.85S
BRAINERD       CLOUDY    31  24  75 W18G25    29.75S WCI  19
HIBBING        CLOUDY    26  21  81 W7        29.68R WCI  18
ALEXANDRIA     CLOUDY    35  28  75 W9        29.79S
SAINT CLOUD    CLOUDY    34  28  79 W8        29.79R
MINNEAPOLIS    CLOUDY    35  26  69 W7        29.80S
$$

  *****  WEATHER ACROSS SOUTH DAKOTA  *****

CITY           SKY/WX    TMP DP  RH WIND       PRES   REMARKS
SIOUX FALLS    FAIR      31  27  85 E5        29.85S
BROOKINGS      NOT AVBL
WATERTOWN      FAIR      31  27  85 W7        29.83R WCI  24
HURON          FAIR      32  27  81 S7        29.84S
SISSETON         N/A     32  30  92 NW9       29.84R WCI  24
ABERDEEN       FAIR      32  26  78 S3        29.87R
MITCHELL       FAIR      33  28  81 SE7       29.85R
PIERRE         FAIR      30  26  85 NE8       29.80S WCI  22
MOBRIDGE       FAIR      37  24  59 NE14      29.82R
RAPID CITY     CLOUDY    38  31  76 E5        29.76S
$$

  *****  SOME WEATHER IN NEARBY STATES *****

CITY           SKY/WX    TMP DP  RH WIND       PRES   REMARKS
GLASGOW MT     CLOUDY    43  15  32 E14       29.83R
GREAT FALLS MT CLOUDY    37  35  92 SW5       29.87R
CHEYENNE WY    FAIR      32  26  78 SW7       29.62F
SCOTTSBLUFF NE CLOUDY    42  38  85 E13       29.61F
OMAHA NE       CLOUDY    48  34  58 VRB3      29.79S
DES MOINES IA  CLOUDY    42  32  67 NE8       29.85S
DAVENPORT IA   FAIR      37  34  89 NE6       29.87F
CHICAGO IL     MOCLDY    43  37  79 W6        29.87S
EAU CLAIRE WI  CLOUDY    33  25  72 W7        29.78S
LA CROSSE WI   CLOUDY    38  28  67 W12       29.84R
$$

  *****  SOME NATIONAL WEATHER *****

CITY           SKY/WX    TMP DP  RH WIND       PRES   REMARKS
LA GUARDIA NY  FOG       59  57  93 E5        29.86F VSB 1/4
RALEIGH NC     MOCLDY    72  65  78 SW12      29.94S
ATLANTA GA     MOCLDY    67  66  97 SW5       29.93S FOG
NEW ORLEANS LA CLOUDY    77  73  87 SE15      29.77S
OKLAHOMA CITY  MOCLDY    59  51  75 E14G22    29.58F
ALBUQUERQUE NM FAIR      52  29  41 N16       29.76R
SALT LAKE CITY MOCLDY    40  30  67 SW5       29.87S
LOS ANGELES CA FAIR      74  33  22 N15G29    29.73F
BOISE ID       MOCLDY    40  31  70 W10       29.98R
SEATTLE WA     CLOUDY    46  42  86 S7        30.20R
$$

*** WEATHER ACROSS MANITOBA...SASKATCHEWAN AND ONTARIO ***
                ***ONTARIO***

CITY           SKY/WX    TMP DP  RH WIND       PRES   REMARKS
GERALDTON      LGT SNOW  25  25 100 SW13      29.41R VSB 3/4 WCI  13
THUNDER BAY    CLOUDY    25  21  86 W9        29.57S WCI  15
SIOUX LOOKOUT  LGT SNOW  25  21  86 NW12      29.58S DRFTSNOWWCI  14
TORONTO        MOCLDY    52  45  76 W10       29.82R
BIG TROUT LK   LGT SNOW  19  16  86 N16G29    29.62F VSB 3/4 WCI   5
PICKLE LAKE    NOT AVBL
DRYDEN         LGT SNOW  25  23  93 NW8       29.62S WCI  16
KENORA         LGT SNOW  27  25  93 N12G18    29.71S VSB 3/4 WCI  16
$$
                *** MANITOBA***

CITY           SKY/WX    TMP DP  RH WIND       PRES   REMARKS
BRANDON        CLEAR     25  18  74 N9        29.91S WCI  15
DAUPHIN        CLEAR     27  14  59 W6        29.95R WCI  20
ISLAND LAKE    MOCLDY    28  12  50 N10       29.87S WCI  19
PILOT MOUND      N/A     27  18  69 NW7         N/A  WCI  19
THE PAS        CLEAR     27  14  59 NW2       29.97R
THOMPSON       MOCLDY    23   7  50 N5        30.00R WCI  17
WINNIPEG       PTCLDY    28  23  80 NW7       29.85S WCI  21
LYNN LAKE      CLEAR     23  12  63 CALM      30.00S
CHURCHILL      CLEAR     14  10  85 S8        30.06S WCI   3
GILLAM         PTCLDY    16   9  73 NE5       30.01S WCI   9
$$
                ***SASKATCHEWAN***

CITY           SKY/WX    TMP DP  RH WIND       PRES   REMARKS
ESTEVAN        PTCLDY    32  27  80 E8        29.90R WCI  25
KINDERSLEY     PTCLDY    28  27  93 W5        29.86R WCI  23
LLOYDMINSTER   CLOUDY    34  32  93 E9        29.93R
PRINCE ALBERT  MOCLDY    34  19  55 E5        29.95R
REGINA         MOCLDY    37  18  44 E13       29.89R
YORKTON        CLEAR     27  19  74 NW2       29.94R
N. BATTLEFORD  CLOUDY    36  30  80 NE16G22   29.92R
LA RONGE       CLEAR     27  16  63 NE2       29.98S
SASKATOON      CLOUDY    43  27  52 SE16      29.92R
SWIFT CURRENT  LGT RAIN  37  36  93 N8        29.86R
$$
NOTE: THESE ARE AUTOMATED STATIONS WITH LIMITED QUALITY CONTROL
      "FAIR" INDICATES FEW OR NO CLOUDS BELOW 12,000 FEET WITH NO
      SIGNIFICANT WEATHER AND/OR OBSTRUCTIONS TO VISIBILITY.
      SKY/WX - SKY CONDITION AND SIGNIFICANT WEATHER.
      TMP - AIR TEMPERATURE.    DP   - DEWPOINT TEMPERATURE.
      RH  - RELATIVE HUMIDITY.  PRES - PRESSURE.
      HX  - HEAT INDEX.         WCI  - WIND CHILL INDEX.
$



USA.gov is the U.S. government's official web portal to all federal, state and local government web resources and services.